GW0614 Weather Reports


Display with metric or nautical units.
time (UTC)temp
F
wind
direction
speed
MPH
gust
MPH
rain 1hr
in
rain 24hr
in
rain mn
in
humidity
%
barometer
mb
20260906193301 73 309 0.0 0.0 0.00 0.00 0.00 68 1019.6
20260906192758 73 16 0.0 1.0 0.00 0.00 0.00 69 1019.5
20260906192252 73 340 1.0 2.0 0.00 0.00 0.00 68 1019.4
20260906191750 74 334 0.0 2.0 0.00 0.00 0.00 67 1019.5
20260906191245 73 324 1.0 2.0 0.00 0.00 0.00 71 1019.6
20260906190740 74 346 1.0 2.0 0.00 0.00 0.00 65 1019.3
20260906190240 74 314 3.0 5.0 0.00 0.00 0.00 69 1019.5
20260906185734 74 335 1.0 1.0 0.00 0.00 0.00 73 1019.2
20260906185233 73 344 1.0 1.0 0.00 0.00 0.00 71 1019.5
20260906184727 72 329 0.0 0.0 0.00 0.00 0.00 69 1019.5
20260906184223 73 0 1.0 1.0 0.00 0.00 0.00 71 1019.7
20260906183718 73 9 0.0 0.0 0.00 0.00 0.00 68 1019.6
20260906183215 73 314 4.0 6.0 0.00 0.00 0.00 71 1019.7
20260906182714 73 323 3.0 3.0 0.00 0.00 0.00 71 1019.6
20260906182211 73 74 0.0 1.0 0.00 0.00 0.00 73 1019.7
20260906181705 74 317 0.0 0.0 0.00 0.00 0.00 72 1019.7
20260906181202 74 312 1.0 1.0 0.00 0.00 0.00 75 1019.6
20260906180656 73 31 2.0 3.0 0.00 0.00 0.00 70 1019.6
20260906180151 72 298 1.0 3.0 0.00 0.00 0.00 72 1019.7
20260906175649 72 330 2.0 3.0 0.00 0.00 0.00 70 1019.6
20260906175144 72 332 3.0 5.0 0.00 0.00 0.00 72 1019.6
20260906174642 72 344 3.0 5.0 0.00 0.00 0.00 72 1019.6
20260906174137 72 329 2.0 2.0 0.00 0.00 0.00 72 1019.7
20260906173632 72 10 2.0 2.0 0.00 0.00 0.00 74 1019.9
20260906173128 72 359 1.0 1.0 0.00 0.00 0.00 73 1019.8
20260906172622 71 15 0.0 1.0 0.00 0.00 0.00 79 1019.8
20260906172118 71 336 1.0 1.0 0.00 0.00 0.00 79 1019.9
20260906171617 69 2 1.0 1.0 0.00 0.00 0.00 79 1020.2
20260906171113 69 21 3.0 3.0 0.00 0.00 0.00 77 1019.9
20260906170609 68 18 0.0 0.0 0.00 0.00 0.00 84 1020.1
20260906170108 69 345 0.0 0.0 0.00 0.00 0.00 80 1019.9
20260906165604 69 322 2.0 2.0 0.00 0.00 0.00 77 1020.0
20260906165059 71 294 2.0 3.0 0.00 0.00 0.00 79 1019.8
20260906164558 70 40 1.0 1.0 0.00 0.00 0.00 78 1020.1
20260906164054 70 348 0.0 0.0 0.00 0.00 0.00 81 1019.8
20260906163549 70 307 3.0 5.0 0.00 0.00 0.00 80 1019.7
20260906163045 71 334 2.0 3.0 0.00 0.00 0.00 79 1019.6
20260906162542 69 45 0.0 0.0 0.00 0.00 0.00 78 1019.9
20260906162037 71 302 2.0 5.0 0.00 0.00 0.00 78 1020.0
20260906161532 69 327 2.0 3.0 0.00 0.00 0.00 82 1020.0
20260906161031 71 49 1.0 1.0 0.00 0.00 0.00 79 1019.8
20260906160531 69 84 0.0 0.0 0.00 0.00 0.00 81 1019.9
20260906160029 68 355 3.0 3.0 0.00 0.00 0.00 80 1019.9
20260906155526 69 319 3.0 3.0 0.00 0.00 0.00 82 1020.1
20260906155023 69 17 2.0 3.0 0.00 0.00 0.00 80 1020.0
20260906154518 69 14 0.0 0.0 0.00 0.00 0.00 81 1020.3
20260906154016 69 350 2.0 2.0 0.00 0.00 0.00 80 1019.9
20260906153515 70 9 1.0 2.0 0.00 0.00 0.00 84 1020.0
20260906153011 68 4 0.0 0.0 0.00 0.00 0.00 87 1019.9
20260906152505 69 46 0.0 0.0 0.00 0.00 0.00 81 1019.9
20260906152004 69 341 3.0 3.0 0.00 0.00 0.00 80 1019.8
20260906151500 68 345 0.0 0.0 0.00 0.00 0.00 89 1019.8
20260906150955 67 5 0.0 0.0 0.00 0.00 0.00 89 1020.1
20260906150451 66 19 0.0 0.0 0.00 0.00 0.00 88 1020.0
20260906145950 67 11 0.0 0.0 0.00 0.00 0.00 86 1019.9
20260906145449 67 9 1.0 2.0 0.00 0.00 0.00 88 1019.9
20260906144944 67 3 0.0 0.0 0.00 0.00 0.00 87 1019.9
20260906144439 68 350 0.0 0.0 0.00 0.00 0.00 85 1019.8
20260906143934 66 344 1.0 2.0 0.00 0.00 0.00 88 1019.7
20260906143430 65 353 0.0 0.0 0.00 0.00 0.00 90 1019.8
20260906142926 65 358 1.0 1.0 0.00 0.00 0.00 92 1019.8
20260906142425 66 52 0.0 0.0 0.00 0.00 0.00 91 1019.5
20260906141920 65 52 0.0 0.0 0.00 0.00 0.00 93 1019.7
20260906141420 65 342 0.0 0.0 0.00 0.00 0.00 91 1019.7
20260906140914 66 11 0.0 0.0 0.00 0.00 0.00 91 1019.6
20260906140408 64 343 0.0 0.0 0.00 0.00 0.00 95 1019.6
20260906135907 64 350 0.0 0.0 0.00 0.00 0.00 94 1019.7
20260906135400 64 323 0.0 0.0 0.00 0.00 0.00 95 1019.5
20260906134856 64 352 0.0 0.0 0.00 0.00 0.00 96 1019.6
20260906134351 63 359 0.0 0.0 0.00 0.00 0.00 96 1019.7
20260906133846 64 359 0.0 0.0 0.00 0.00 0.00 96 1019.4
20260906133342 63 9 0.0 0.0 0.00 0.00 0.00 99 1019.4
20260906132838 63 11 0.0 0.0 0.00 0.00 0.00 99 1019.5
20260906132333 63 29 0.0 0.0 0.00 0.00 0.00 99 1019.6
20260906131828 63 5 0.0 0.0 0.00 0.00 0.00 99 1019.4
20260906131323 63 31 0.0 0.0 0.00 0.00 0.00 99 1019.5
20260906130819 62 346 0.0 0.0 0.00 0.00 0.00 99 1019.6
20260906130319 62 359 0.0 0.0 0.00 0.00 0.00 99 1019.5
20260906125818 62 12 0.0 0.0 0.00 0.00 0.00 99 1019.6
20260906125315 62 13 0.0 0.0 0.00 0.00 0.00 99 1019.6
20260906124810 62 13 0.0 0.0 0.00 0.00 0.00 99 1019.6
20260906124306 62 14 0.0 0.0 0.00 0.00 0.00 99 1019.5
20260906123805 62 14 0.0 0.0 0.00 0.00 0.00 99 1019.4
20260906123259 62 14 0.0 0.0 0.00 0.00 0.00 99 1019.3
20260906122754 61 14 0.0 0.0 0.00 0.00 0.00 99 1019.4
20260906122249 61 14 0.0 0.0 0.00 0.00 0.00 99 1019.3
20260906121746 61 14 0.0 0.0 0.00 0.00 0.00 99 1019.5
20260906121242 61 14 0.0 0.0 0.00 0.00 0.00 99 1019.3
20260906120737 60 14 0.0 0.0 0.00 0.00 0.00 99 1019.3
20260906120234 60 14 0.0 0.0 0.00 0.00 0.00 99 1019.1
20260906115729 60 14 0.0 0.0 0.00 0.00 0.00 99 1019.1
20260906115224 60 14 0.0 0.0 0.00 0.00 0.00 99 1019.1
20260906114723 60 14 0.0 0.0 0.00 0.00 0.00 99 1019.0
20260906114218 60 14 0.0 0.0 0.00 0.00 0.00 99 1018.8
20260906113714 60 14 0.0 0.0 0.00 0.00 0.00 99 1018.9
20260906113213 60 14 0.0 0.0 0.00 0.00 0.00 99 1018.8
20260906112713 60 14 0.0 0.0 0.00 0.00 0.00 99 1018.9
20260906112210 60 14 0.0 0.0 0.00 0.00 0.00 99 1018.8
20260906111709 60 14 0.0 0.0 0.00 0.00 0.00 99 1018.6
20260906111204 60 14 0.0 0.0 0.00 0.00 0.00 99 1018.7
20260906110659 60 14 0.0 0.0 0.00 0.00 0.00 99 1018.6
20260906110154 60 14 0.0 0.0 0.00 0.00 0.00 99 1018.7
20260906105648 60 14 0.0 0.0 0.00 0.00 0.00 99 1018.6
20260906105144 60 14 0.0 0.0 0.00 0.00 0.00 99 1018.5
20260906104643 60 14 0.0 0.0 0.00 0.00 0.00 99 1018.5
20260906104142 59 14 0.0 0.0 0.00 0.00 0.00 99 1018.2
20260906103640 59 14 0.0 0.0 0.00 0.00 0.00 99 1018.0
20260906103136 59 14 0.0 0.0 0.00 0.00 0.00 99 1018.3
20260906102631 59 14 0.0 0.0 0.00 0.00 0.00 99 1018.2
20260906102125 59 14 0.0 0.0 0.00 0.00 0.00 99 1018.2
20260906101620 59 14 0.0 0.0 0.00 0.00 0.00 99 1017.8
20260906101114 59 14 0.0 0.0 0.00 0.00 0.00 99 1017.8
20260906100611 59 14 0.0 0.0 0.00 0.00 0.00 99 1017.7
20260906100111 59 14 0.0 0.0 0.00 0.00 0.00 99 1017.7
20260906095610 59 14 0.0 0.0 0.00 0.00 0.00 99 1017.8
20260906095106 59 14 0.0 0.0 0.00 0.00 0.00 99 1017.6
20260906094605 59 14 0.0 0.0 0.00 0.00 0.00 99 1017.6
20260906094101 59 14 0.0 0.0 0.00 0.00 0.00 99 1017.4
20260906093556 59 14 0.0 0.0 0.00 0.00 0.00 99 1017.5
20260906093051 59 14 0.0 0.0 0.00 0.00 0.00 99 1017.4
20260906092547 59 14 0.0 0.0 0.00 0.00 0.00 99 1017.5
20260906092041 59 14 0.0 0.0 0.00 0.00 0.00 99 1017.4
20260906091537 59 14 0.0 0.0 0.00 0.00 0.00 99 1017.3
20260906091033 59 14 0.0 0.0 0.00 0.00 0.00 99 1017.1
20260906090528 59 14 0.0 0.0 0.00 0.00 0.00 99 1017.1
20260906090023 59 14 0.0 0.0 0.00 0.00 0.00 99 1017.3
20260906085522 59 14 0.0 0.0 0.00 0.00 0.00 99 1017.2
20260906085021 59 14 0.0 0.0 0.00 0.00 0.00 99 1017.0
20260906084516 59 14 0.0 0.0 0.00 0.00 0.00 99 1017.3
20260906084015 59 14 0.0 0.0 0.00 0.00 0.00 99 1017.3
20260906083511 59 14 0.0 0.0 0.00 0.00 0.00 99 1017.3
20260906083010 59 14 0.0 0.0 0.00 0.00 0.00 99 1017.2
20260906082505 59 14 0.0 0.0 0.00 0.00 0.00 99 1017.0
20260906082001 59 14 0.0 0.0 0.00 0.00 0.00 99 1017.3
20260906081456 59 14 0.0 0.0 0.00 0.00 0.00 99 1017.3
20260906080952 59 14 0.0 0.0 0.00 0.00 0.00 99 1017.2
20260906080448 59 14 0.0 0.0 0.00 0.00 0.00 99 1017.3
20260906075943 59 14 0.0 0.0 0.00 0.00 0.00 99 1017.0
20260906075438 59 14 0.0 0.0 0.00 0.00 0.00 99 1017.1
20260906074933 59 14 0.0 0.0 0.00 0.00 0.00 99 1017.1
20260906074433 59 14 0.0 0.0 0.00 0.00 0.00 99 1017.1
20260906073931 59 14 0.0 0.0 0.00 0.00 0.00 99 1017.2
20260906073426 59 14 0.0 0.0 0.00 0.00 0.00 99 1017.1
20260906072923 59 14 0.0 0.0 0.00 0.00 0.00 99 1017.1
20260906072418 59 14 0.0 0.0 0.00 0.00 0.00 99 1017.1
20260906071914 59 14 0.0 0.0 0.00 0.00 0.00 99 1016.9
20260906071409 59 15 0.0 0.0 0.00 0.00 0.00 99 1016.8
20260906070905 58 15 0.0 0.0 0.00 0.00 0.00 99 1016.8
20260906070401 58 11 0.0 0.0 0.00 0.00 0.00 99 1017.2
20260906065857 58 11 0.0 0.0 0.00 0.00 0.00 99 1016.8
20260906065350 58 11 0.0 0.0 0.00 0.00 0.00 99 1016.9
20260906064846 58 11 0.0 0.0 0.00 0.00 0.00 99 1017.0
20260906064342 58 11 0.0 0.0 0.00 0.00 0.00 99 1017.1
20260906063836 58 11 0.0 0.0 0.00 0.00 0.00 99 1017.2
20260906063332 58 11 0.0 0.0 0.00 0.00 0.00 99 1017.2
20260906062827 58 11 0.0 0.0 0.00 0.00 0.00 99 1017.2
20260906062326 58 11 0.0 0.0 0.00 0.00 0.00 99 1017.2
20260906061821 58 11 0.0 0.0 0.00 0.00 0.00 99 1017.1
20260906061318 58 11 0.0 0.0 0.00 0.00 0.00 99 1017.1
20260906060813 58 11 0.0 0.0 0.00 0.00 0.00 99 1017.1
20260906060311 58 11 0.0 0.0 0.00 0.00 0.00 99 1017.0
20260906055807 58 11 0.0 0.0 0.00 0.00 0.00 99 1017.4
20260906055306 58 11 0.0 0.0 0.00 0.00 0.00 99 1017.2
20260906054756 58 11 0.0 0.0 0.00 0.00 0.00 99 1017.2
20260906054252 58 11 0.0 0.0 0.00 0.00 0.00 99 1017.1
20260906053748 58 11 0.0 0.0 0.00 0.00 0.00 99 1017.2
20260906053244 58 11 0.0 0.0 0.00 0.00 0.00 99 1017.3
20260906052739 58 11 0.0 0.0 0.00 0.00 0.00 99 1017.2
20260906052235 58 11 0.0 0.0 0.00 0.00 0.00 99 1017.4
20260906051732 58 11 0.0 0.0 0.00 0.00 0.00 99 1017.4
20260906051231 58 11 0.0 0.0 0.00 0.00 0.00 99 1017.2
20260906050727 58 11 0.0 0.0 0.00 0.00 0.00 99 1017.1
20260906050222 57 11 0.0 0.0 0.00 0.00 0.00 99 1016.9
20260906045720 57 11 0.0 0.0 0.00 0.00 0.00 99 1017.1
20260906045216 57 11 0.0 0.0 0.00 0.00 0.00 99 1017.0
20260906044711 57 11 0.0 0.0 0.00 0.00 0.00 99 1017.2
20260906044206 57 11 0.0 0.0 0.00 0.00 0.00 99 1017.2
20260906043703 57 11 0.0 0.0 0.00 0.00 0.00 99 1017.1
20260906043158 57 11 0.0 0.0 0.00 0.00 0.00 99 1017.1
20260906042657 57 11 0.0 0.0 0.00 0.00 0.00 99 1017.3
20260906042157 57 11 0.0 0.0 0.00 0.00 0.00 99 1017.0
20260906041653 57 11 0.0 0.0 0.00 0.00 0.00 99 1017.3
20260906041148 57 11 0.0 0.0 0.00 0.00 0.00 99 1017.2
20260906040643 57 11 0.0 0.0 0.00 0.00 0.00 99 1017.1
20260906040138 57 11 0.0 0.0 0.00 0.00 0.00 99 1017.2
20260906035633 58 11 0.0 0.0 0.00 0.00 0.00 99 1017.3
20260906035129 58 11 0.0 0.0 0.00 0.00 0.00 99 1016.9
20260906034624 58 11 0.0 0.0 0.00 0.00 0.00 99 1017.2
20260906034118 58 11 0.0 0.0 0.00 0.00 0.00 99 1017.2
20260906033614 58 11 0.0 0.0 0.00 0.00 0.00 99 1017.2
20260906033109 58 11 0.0 0.0 0.00 0.00 0.00 99 1016.9
20260906032606 58 11 0.0 0.0 0.00 0.00 0.00 99 1017.1
20260906032105 58 11 0.0 0.0 0.00 0.00 0.00 99 1017.1
20260906031601 58 11 0.0 0.0 0.00 0.00 0.00 99 1016.8
20260906031056 58 11 0.0 0.0 0.00 0.00 0.00 99 1016.7
20260906030555 58 11 0.0 0.0 0.00 0.00 0.00 99 1016.6
20260906030050 58 11 0.0 0.0 0.00 0.00 0.00 99 1016.4
20260906025550 58 11 0.0 0.0 0.00 0.00 0.00 99 1016.8
20260906025048 58 11 0.0 0.0 0.00 0.00 0.00 99 1016.8
20260906024544 58 11 0.0 0.0 0.00 0.00 0.00 99 1016.6
20260906024043 58 11 0.0 0.0 0.00 0.00 0.00 99 1016.6
20260906023540 58 11 0.0 0.0 0.00 0.00 0.00 99 1016.8
20260906023034 58 11 0.0 0.0 0.00 0.00 0.00 99 1016.7
20260906022530 58 11 0.0 0.0 0.00 0.00 0.00 99 1016.6
20260906022025 58 11 0.0 0.0 0.00 0.00 0.00 99 1016.8
20260906021520 58 11 0.0 0.0 0.00 0.00 0.00 99 1016.7
20260906021014 58 11 0.0 0.0 0.00 0.00 0.00 99 1016.5
20260906020514 58 11 0.0 0.0 0.00 0.00 0.00 99 1016.6
20260906020013 59 11 0.0 0.0 0.00 0.00 0.00 99 1016.7
20260906015512 59 11 0.0 0.0 0.00 0.00 0.00 99 1016.5
20260906015007 59 11 0.0 0.0 0.00 0.00 0.00 99 1016.6
20260906014501 59 11 0.0 0.0 0.00 0.00 0.00 99 1016.4
20260906013957 59 11 0.0 0.0 0.00 0.00 0.00 99 1016.5
20260906013453 59 11 0.0 0.0 0.00 0.00 0.00 99 1016.5
20260906012949 59 11 0.0 0.0 0.00 0.00 0.00 99 1016.4
20260906012448 59 11 0.0 0.0 0.00 0.00 0.00 99 1016.2
20260906011948 59 11 0.0 0.0 0.00 0.00 0.00 99 1016.4
20260906011444 59 11 0.0 0.0 0.00 0.00 0.00 99 1016.3
20260906010939 60 11 0.0 0.0 0.00 0.00 0.00 99 1016.5
20260906010434 60 11 0.0 0.0 0.00 0.00 0.00 99 1016.6
20260906005930 60 11 0.0 0.0 0.00 0.00 0.00 99 1016.4
20260906005430 60 11 0.0 0.0 0.00 0.00 0.00 99 1016.4
20260906004928 60 11 0.0 0.0 0.00 0.00 0.00 99 1016.4
20260906004422 60 11 0.0 0.0 0.00 0.00 0.00 99 1016.5
20260906003918 60 11 0.0 0.0 0.00 0.00 0.00 99 1016.5
20260906003413 60 11 0.0 0.0 0.00 0.00 0.00 99 1016.4
20260906002909 60 11 0.0 0.0 0.00 0.00 0.00 99 1016.1
20260906002409 60 11 0.0 0.0 0.00 0.00 0.00 99 1016.2
20260906001904 60 11 0.0 0.0 0.00 0.00 0.00 99 1016.2
20260906001400 60 11 0.0 0.0 0.00 0.00 0.00 99 1016.0
20260906000859 61 11 0.0 0.0 0.00 0.00 0.00 99 1016.2
20260906000400 61 11 0.0 0.0 0.00 0.00 0.00 99 1016.0
20260905235855 61 11 0.0 0.0 0.00 0.00 0.00 99 1015.9
20260905235349 61 11 0.0 0.0 0.00 0.00 0.00 99 1016.1
20260905234844 61 11 0.0 0.0 0.00 0.00 0.00 99 1015.8
20260905234340 62 11 0.0 0.0 0.00 0.00 0.00 99 1015.8
20260905233835 62 11 0.0 0.0 0.00 0.00 0.00 99 1015.9
20260905233329 63 11 0.0 0.0 0.00 0.00 0.00 99 1016.0
20260905232829 63 11 0.0 0.0 0.00 0.00 0.00 99 1015.7
20260905232325 64 11 0.0 0.0 0.00 0.00 0.00 99 1015.6
20260905231821 64 11 0.0 0.0 0.00 0.00 0.00 99 1015.5
20260905231316 64 11 0.0 0.0 0.00 0.00 0.00 99 1015.5
20260905230812 65 11 0.0 0.0 0.00 0.00 0.00 98 1015.4
20260905230310 66 11 0.0 0.0 0.00 0.00 0.00 97 1015.5
20260905225809 67 11 0.0 0.0 0.00 0.00 0.00 95 1015.2
20260905225306 67 11 0.0 0.0 0.00 0.00 0.00 93 1015.5
20260905224804 69 11 0.0 0.0 0.00 0.00 0.00 90 1015.5
20260905224300 70 11 0.0 0.0 0.00 0.00 0.00 88 1015.7
20260905223755 71 11 0.0 0.0 0.00 0.00 0.00 85 1015.7
20260905223252 73 10 0.0 0.0 0.00 0.00 0.00 84 1015.5
20260905222747 71 10 0.0 0.0 0.00 0.00 0.00 83 1015.7
20260905222246 70 11 0.0 0.0 0.00 0.00 0.00 88 1015.6
20260905221742 70 14 0.0 0.0 0.00 0.00 0.00 90 1015.2
20260905221239 70 14 0.0 0.0 0.00 0.00 0.00 94 1015.5
20260905220734 70 14 0.0 0.0 0.00 0.00 0.00 93 1015.1
20260905220231 70 14 0.0 0.0 0.00 0.00 0.00 91 1015.2
20260905215730 70 14 0.0 0.0 0.00 0.00 0.00 90 1015.2
20260905215226 70 14 0.0 0.0 0.00 0.00 0.00 90 1014.9
20260905214721 71 14 0.0 0.0 0.00 0.00 0.00 89 1015.0
20260905214216 71 13 0.0 0.0 0.00 0.00 0.00 88 1014.8
20260905213712 71 13 0.0 0.0 0.00 0.00 0.00 88 1014.9
20260905213208 71 14 0.0 0.0 0.00 0.00 0.00 84 1014.9
20260905212703 71 14 0.0 0.0 0.00 0.00 0.00 87 1015.1
20260905212202 72 15 0.0 0.0 0.00 0.00 0.00 82 1015.0
20260905211656 72 15 0.0 0.0 0.00 0.00 0.00 86 1014.9
20260905211152 72 15 0.0 0.0 0.00 0.00 0.00 84 1014.9
20260905210648 72 15 0.0 0.0 0.00 0.00 0.00 79 1014.9
20260905210143 72 2 0.0 0.0 0.00 0.00 0.00 81 1014.8
20260905205642 72 2 0.0 0.0 0.00 0.00 0.00 84 1015.1
20260905205142 71 1 0.0 0.0 0.00 0.00 0.00 81 1015.0
20260905204641 72 19 0.0 0.0 0.00 0.00 0.00 83 1014.8
20260905204136 72 316 0.0 0.0 0.00 0.00 0.00 81 1014.7
20260905203631 72 316 2.0 2.0 0.00 0.00 0.00 78 1014.5
20260905203126 72 13 0.0 0.0 0.00 0.00 0.00 79 1014.8
20260905202622 73 335 0.0 0.0 0.00 0.00 0.00 82 1014.6
20260905202117 74 342 0.0 0.0 0.00 0.00 0.00 78 1014.8
20260905201613 74 355 0.0 0.0 0.00 0.00 0.00 76 1014.8
20260905201112 76 318 1.0 1.0 0.00 0.00 0.00 72 1014.7
20260905200608 75 347 0.0 1.0 0.00 0.00 0.00 72 1014.8
20260905195556 76 356 0.0 1.0 0.00 0.00 0.00 73 1014.6
20260905195051 76 337 1.0 1.0 0.00 0.00 0.00 74 1014.6
20260905194551 76 8 0.0 0.0 0.00 0.00 0.00 75 1014.6
20260905194050 75 355 3.0 3.0 0.00 0.00 0.00 74 1014.7
20260905193545 74 329 2.0 3.0 0.00 0.00 0.00 74 1014.6